Simultaneous Nadir Overpasses (SNOs) Predictions

Prediction of SNOs between NOAA-19 and TERRA Satellite Orbit:

Table of predicted SNOs for the next 14.0 days since TLE Epoch: 8/25/2018
Index Date (NOAA-19) Time (NOAA-19) Lat,Lon (NOAA-19) SZA (NOAA-19 ) Date (TERRA) Time (TERRA) Lat,Lon (TERRA) SZA (TERRA ) Distance(km) Time Diff (sec)
1 08/26/2018 23:11:51 -77.41, 29.46 112.24 08/26/2018 23:12:50 -77.43, 29.42 112.21 1.59 59
2 08/27/2018 00:02:55 77.37,-163.09 67.75 08/27/2018 00:02:17 77.37,-163.15 67.74 1.49 38
3 08/29/2018 04:45:29 77.44, 125.99 68.59 08/29/2018 04:46:33 77.42, 125.98 68.59 2.11 64
4 08/29/2018 05:36:24 -77.39, -66.46 111.44 08/29/2018 05:36:01 -77.39, -66.52 111.45 1.59 23
5 08/31/2018 10:19:04 -77.68,-138.52 110.46 08/31/2018 10:20:14 -77.58,-136.83 110.42 41.87 70
6 08/31/2018 11:10:01 77.40, 30.15 69.39 08/31/2018 11:09:44 77.39, 30.04 69.36 3.14 17
7 09/02/2018 16:43:31 -77.42, 126.75 109.78 09/02/2018 16:43:28 -77.41, 126.68 109.80 2.34 3
8 09/04/2018 22:17:07 77.44,-136.68 71.08 09/04/2018 22:17:10 77.45,-136.58 71.09 2.40 3
9 09/07/2018 03:50:38 -77.46, -40.08 108.07 09/07/2018 03:50:54 -77.47, -39.93 108.05 3.90 16




NCC Satellite Simultaneous Nadir Overpasses (SNOs) Prediction Service
